Edenton, NC

6:08 PM EDT on June 24, 2018 (GMT -0400)
Northeastern Regional

Weather History for KEDE - October, 2017

Change the Weather History Date:

Friday, October 13, 2017

  Actual Average Record
Temperature  
Mean Temperature 72 °F -  
Max Temperature 75 °F 73 °F 86 °F (1962)
Min Temperature 68 °F 52 °F 36 °F (1988)
Cooling Degree Days 6    
Growing Degree Days 22 (Base 50)    
Moisture  
Dew Point 66 °F    
Average Humidity 87    
Maximum Humidity 94    
Minimum Humidity 73    
Precipitation  
Precipitation 0.00 in - - ()
Sea Level Pressure  
Sea Level Pressure 30.21 in    
Wind  
Wind Speed 6 mph (North)    
Max Wind Speed 16 mph    
Max Gust Speed 21 mph    
Visibility 8 miles    
Events Rain    
Averages and records for this station are not official NWS values.
T = Trace of Precipitation, MM = Missing Value Source: NWS Daily Summary

Daily Weather History Graph

Daily Weather History Graph

Search for Another Location

Airport or City:

Astronomy

Oct. 13, 2017 Rise Set
Actual Time 7:11 AM EDT 6:32 PM EDT
Civil Twilight 6:45 AM EDT 6:58 PM EDT
Nautical Twilight 6:16 AM EDT 7:28 PM EDT
Astronomical Twilight 5:46 AM EDT 7:57 PM EDT
Moon 12:45 AM EDT (10/13) 3:03 PM EDT (10/13)
Length of Visible Light 12h 12m
Length of Day
11h 21m
Last Quarter, 37% of the Moon is Illuminated
Oct 13
Last Quarter
Oct 19
New
Oct 27
First Quarter
Nov 4
Full
Nov 10
Last Quarter

Hourly Weather History & Observations

Time (EDT) Temp. Dew Point Humidity Pressure Visibility Wind Dir Wind Speed Gust Speed Precip Events Conditions
12:05 AM 69.1 °F 66.7 °F 92% 30.20 in 7.0 mi Calm Calm - N/A   Overcast
12:25 AM 69.1 °F 66.4 °F 91% 30.19 in 10.0 mi Calm Calm - N/A   Overcast
12:45 AM 69.1 °F 66.4 °F 91% 30.19 in 7.0 mi NE 4.6 mph - N/A   Overcast
1:05 AM 69.1 °F 66.2 °F 91% 30.20 in 10.0 mi Calm Calm - N/A   Overcast
1:25 AM 69.3 °F 66.2 °F 90% 30.20 in 10.0 mi Calm Calm - N/A   Overcast
1:45 AM 69.1 °F 66.2 °F 91% 30.20 in 10.0 mi NNE 5.8 mph - N/A   Overcast
2:05 AM 69.1 °F 66.2 °F 91% 30.19 in 7.0 mi NNE 6.9 mph - N/A   Overcast
2:25 AM 68.9 °F 66.4 °F 92% 30.19 in 7.0 mi NNE 8.1 mph - N/A   Overcast
2:45 AM 68.5 °F 66.4 °F 93% 30.19 in 7.0 mi Calm Calm - N/A   Overcast
3:05 AM 68.4 °F 66.4 °F 93% 30.19 in 7.0 mi NE 8.1 mph - N/A   Overcast
3:25 AM 68.4 °F 66.2 °F 93% 30.19 in 7.0 mi Calm Calm - N/A   Overcast
3:45 AM 68.4 °F 66.2 °F 93% 30.19 in 7.0 mi Calm Calm - N/A   Overcast
4:05 AM 68.4 °F 66.2 °F 93% 30.20 in 7.0 mi NNE 5.8 mph - N/A   Overcast
4:25 AM 68.4 °F 66.2 °F 93% 30.21 in 7.0 mi Calm Calm - N/A   Overcast
4:45 AM 68.4 °F 66.2 °F 93% 30.21 in 10.0 mi Calm Calm - N/A   Overcast
5:05 AM 68.5 °F 66.2 °F 92% 30.22 in 10.0 mi Calm Calm - N/A   Overcast
5:25 AM 68.4 °F 66.2 °F 93% 30.22 in 7.0 mi Calm Calm - N/A   Overcast
5:45 AM 68.4 °F 66.2 °F 93% 30.22 in 7.0 mi Calm Calm - N/A   Overcast
6:05 AM 68.5 °F 66.2 °F 92% 30.22 in 10.0 mi NNE 3.5 mph - N/A   Overcast
6:25 AM 68.9 °F 66.0 °F 90% 30.22 in 10.0 mi NNE 9.2 mph - N/A   Overcast
6:45 AM 68.7 °F 65.8 °F 90% 30.22 in 10.0 mi North 9.2 mph - N/A   Overcast
7:05 AM 68.9 °F 65.8 °F 90% 30.23 in 10.0 mi NNE 3.5 mph - N/A   Overcast
7:25 AM 68.9 °F 66.0 °F 90% 30.23 in 10.0 mi NNE 8.1 mph - N/A   Overcast
7:45 AM 68.9 °F 65.8 °F 90% 30.24 in 10.0 mi NNE 8.1 mph - N/A   Overcast
8:05 AM 69.3 °F 65.8 °F 89% 30.24 in 10.0 mi North 4.6 mph - N/A   Overcast
8:25 AM 69.3 °F 66.0 °F 89% 30.25 in 10.0 mi NNE 6.9 mph - N/A   Overcast
8:45 AM 70.2 °F 66.4 °F 88% 30.25 in 10.0 mi North 3.5 mph - N/A   Overcast
9:05 AM 70.7 °F 66.4 °F 86% 30.25 in 10.0 mi NNE 8.1 mph - N/A   Overcast
9:25 AM 71.1 °F 66.4 °F 85% 30.25 in 10.0 mi NNE 8.1 mph - N/A   Overcast
9:45 AM 71.6 °F 66.2 °F 83% 30.26 in 10.0 mi NNE 9.2 mph - N/A   Overcast
10:05 AM 72.1 °F 66.4 °F 82% 30.26 in 10.0 mi NNE 8.1 mph - N/A   Overcast
10:25 AM 72.5 °F 66.2 °F 81% 30.26 in 10.0 mi Calm Calm - N/A   Overcast
10:45 AM 72.9 °F 66.0 °F 79% 30.26 in 10.0 mi NNE 9.2 mph 18.4 mph N/A   Overcast
11:05 AM 73.8 °F 66.2 °F 77% 30.26 in 10.0 mi NNE 10.4 mph - N/A   Overcast
11:25 AM 73.8 °F 65.7 °F 76% 30.26 in 10.0 mi NE 8.1 mph 17.3 mph N/A   Overcast
11:45 AM 74.3 °F 66.2 °F 76% 30.25 in 10.0 mi North 8.1 mph - N/A   Overcast
12:05 PM 74.1 °F 66.4 °F 77% 30.24 in 10.0 mi NNE 5.8 mph 17.3 mph N/A   Overcast
12:25 PM 73.6 °F 66.7 °F 79% 30.24 in 10.0 mi NNE 9.2 mph - N/A   Overcast
12:45 PM 75.0 °F 66.6 °F 75% 30.23 in 10.0 mi North 11.5 mph 16.1 mph N/A   Overcast
1:05 PM 74.3 °F 66.6 °F 77% 30.22 in 10.0 mi North 9.2 mph - N/A   Overcast
1:25 PM 75.2 °F 66.2 °F 73% 30.21 in 10.0 mi North 12.7 mph 16.1 mph N/A   Overcast
1:45 PM 74.5 °F 65.7 °F 74% 30.21 in 10.0 mi North 13.8 mph 19.6 mph N/A   Overcast
2:05 PM 74.5 °F 66.4 °F 76% 30.20 in 10.0 mi North 13.8 mph 18.4 mph N/A   Overcast
2:25 PM 75.0 °F 66.7 °F 75% 30.19 in 10.0 mi North 11.5 mph 18.4 mph N/A   Overcast
2:45 PM 75.0 °F 66.7 °F 75% 30.19 in 10.0 mi North 13.8 mph 17.3 mph N/A   Overcast
3:05 PM 73.6 °F 66.6 °F 79% 30.19 in 10.0 mi North 10.4 mph 19.6 mph N/A   Overcast
4:45 PM 72.3 °F 66.4 °F 82% 30.19 in 10.0 mi North 15.0 mph 18.4 mph N/A   Overcast
5:05 PM 71.8 °F 66.7 °F 84% 30.18 in 10.0 mi North 11.5 mph 18.4 mph N/A   Overcast
5:25 PM 72.0 °F 66.4 °F 83% 30.18 in 10.0 mi North 15.0 mph 20.7 mph N/A   Overcast
5:45 PM 71.1 °F 66.4 °F 85% 30.18 in 10.0 mi North 12.7 mph 18.4 mph N/A   Overcast
6:05 PM 70.5 °F 66.7 °F 88% 30.18 in 7.0 mi North 13.8 mph 20.7 mph N/A   Overcast
6:45 PM 70.0 °F 66.6 °F 89% 30.18 in 10.0 mi NNW 16.1 mph 19.6 mph N/A   Overcast
7:45 PM 68.9 °F 66.2 °F 91% 30.18 in 4.0 mi North 13.8 mph 18.4 mph N/A   Overcast
8:25 PM 68.5 °F 66.6 °F 93% 30.17 in 5.0 mi North 10.4 mph - N/A Rain Light Rain
9:05 PM 68.4 °F 66.4 °F 93% 30.18 in 3.0 mi North 13.8 mph 19.6 mph N/A Rain Rain
9:25 PM 68.4 °F 66.4 °F 93% 30.18 in 4.0 mi North 13.8 mph - N/A   Drizzle
9:45 PM 68.4 °F 66.4 °F 93% 30.18 in 4.0 mi North 11.5 mph - N/A   Drizzle
10:05 PM 68.4 °F 66.4 °F 93% 30.18 in 7.0 mi North 12.7 mph 17.3 mph N/A   Overcast
10:25 PM 68.2 °F 66.4 °F 94% 30.18 in 5.0 mi North 11.5 mph - N/A   Overcast
10:45 PM 68.4 °F 66.6 °F 94% 30.18 in 5.0 mi North 13.8 mph - N/A   Overcast
11:05 PM 68.2 °F 66.4 °F 94% 30.17 in 7.0 mi North 12.7 mph 18.4 mph N/A   Overcast
11:25 PM 68.2 °F 66.4 °F 94% 30.17 in 5.0 mi North 10.4 mph 19.6 mph N/A   Overcast
11:45 PM 68.2 °F 66.4 °F 94% 30.17 in 5.0 mi North 12.7 mph 16.1 mph N/A   Overcast